Weather History for KFSE - March, 2013

Change the Weather History Date:

Monday, March 18, 2013

  Actual Average Record
Temperature  
Mean Temperature 14 °F -  
Max Temperature 26 °F 35 °F 71 °F (2012)
Min Temperature 3 °F 13 °F -18 °F (1989)
Degree Days  
Heating Degree Days 50    
Moisture  
Dew Point 13 °F    
Average Humidity 85    
Maximum Humidity 93    
Minimum Humidity 73    
Precipitation  
Precipitation 0.10 in - - ()
Sea Level Pressure  
Sea Level Pressure 29.58 in    
Wind  
Wind Speed 14 mph (WNW)    
Max Wind Speed 29 mph    
Max Gust Speed 37 mph    
Visibility 3 miles    
Events Snow    
Averages and records for this station are not official NWS values.
T = Trace of Precipitation, MM = Missing Value Source: NWS Daily Summary

Daily Weather History Graph

Daily Weather History Graph

Search for Another Location

Airport or City:

Trip Planner

Search our weather history database for the weather conditions in past years. The results will help you decide how hot, cold, wet, or windy it might be!

Date:

Astronomy

Mar. 18, 2013 Rise Set
Actual Time 7:29 AM CDT 7:33 PM CDT
Civil Twilight 6:58 AM CDT 8:04 PM CDT
Nautical Twilight 6:22 AM CDT 8:40 PM CDT
Astronomical Twilight 5:45 AM CDT 9:17 PM CDT
Moon 11:05 AM CDT (3/18) 1:57 AM CDT (3/18)
Length of Visible Light 13h 05m
Length of Day
12h 03m
Waxing Crescent, 41% of the Moon is Illuminated
Mar 18
Waxing Crescent
Mar 19
First Quarter
Mar 27
Full
Apr 2
Last Quarter
Apr 10
New

Hourly Weather History & Observations

Time (CDT) Temp. Windchill Dew Point Humidity Pressure Visibility Wind Dir Wind Speed Gust Speed Precip Events Conditions
12:15 AM 17.6 °F 5.7 °F 15.8 °F 93% 29.65 in 2.0 mi SE 10.4 mph 16.1 mph N/A Snow Light Snow
12:35 AM 17.6 °F 3.7 °F 15.8 °F 93% 29.63 in 1.8 mi SE 13.8 mph 21.9 mph N/A Snow Light Snow
12:55 AM 17.6 °F 5.0 °F 15.8 °F 93% 29.62 in 5.0 mi SE 11.5 mph 19.6 mph N/A Snow Light Snow
1:15 AM 19.4 °F 6.0 °F 15.8 °F 86% 29.61 in 4.0 mi SE 13.8 mph 20.7 mph N/A Snow Light Snow
1:35 AM 19.4 °F 5.5 °F 15.8 °F 86% 29.59 in 3.0 mi SE 15.0 mph - 0.01 in Snow Light Snow
1:55 AM 19.4 °F 6.0 °F 17.6 °F 93% 29.58 in 5.0 mi SE 13.8 mph 21.9 mph 0.01 in Snow Light Snow
2:15 AM 21.2 °F 6.8 °F 17.6 °F 86% 29.56 in 2.5 mi SE 17.3 mph 23.0 mph N/A Snow Light Snow
2:35 AM 21.2 °F 6.4 °F 17.6 °F 86% 29.55 in 1.2 mi SE 18.4 mph 23.0 mph N/A Snow Light Snow
2:55 AM 21.2 °F 6.0 °F 17.6 °F 86% 29.54 in 1.8 mi SE 19.6 mph 26.5 mph N/A Snow Light Snow
3:15 AM 21.2 °F 6.8 °F 19.4 °F 93% 29.53 in 2.0 mi SE 17.3 mph 25.3 mph N/A Snow Light Snow
3:35 AM 21.2 °F 7.3 °F 19.4 °F 93% 29.52 in 1.8 mi SE 16.1 mph 23.0 mph N/A Snow Light Snow
3:55 AM 21.2 °F 7.3 °F 19.4 °F 93% 29.50 in 2.5 mi SE 16.1 mph 23.0 mph N/A Snow Light Snow
4:15 AM 21.2 °F 7.8 °F 19.4 °F 93% 29.49 in 5.0 mi SE 15.0 mph 26.5 mph N/A   Overcast
4:35 AM 23.0 °F 10.6 °F 19.4 °F 86% 29.47 in 7.0 mi SE 13.8 mph 23.0 mph N/A   Overcast
4:55 AM 23.0 °F 10.6 °F 19.4 °F 86% 29.46 in 10.0 mi SE 13.8 mph 19.6 mph N/A   Overcast
5:15 AM 23.0 °F 11.7 °F 19.4 °F 86% 29.45 in 10.0 mi SE 11.5 mph 18.4 mph N/A   Overcast
5:35 AM 23.0 °F 10.1 °F 19.4 °F 86% 29.44 in 10.0 mi SE 15.0 mph 19.6 mph N/A   Overcast
5:55 AM 23.0 °F 11.7 °F 19.4 °F 86% 29.44 in 7.0 mi SE 11.5 mph 18.4 mph 0.01 in Snow Light Snow
6:15 AM 23.0 °F 11.7 °F 19.4 °F 86% 29.43 in 4.0 mi ESE 11.5 mph 16.1 mph N/A Snow Light Snow
6:35 AM 23.0 °F 11.7 °F 19.4 °F 86% 29.43 in 3.0 mi SE 11.5 mph - N/A Snow Light Snow
6:55 AM 23.0 °F 12.4 °F 19.4 °F 86% 29.42 in 1.8 mi SE 10.4 mph - 0.01 in Snow Light Snow
7:15 AM 23.0 °F 12.4 °F 19.4 °F 86% 29.41 in 3.0 mi SE 10.4 mph 16.1 mph N/A Snow Light Snow
7:35 AM 23.0 °F 12.4 °F 21.2 °F 93% 29.40 in 4.0 mi SE 10.4 mph - N/A Snow Light Snow
7:55 AM 23.0 °F 14.7 °F 21.2 °F 93% 29.40 in 3.0 mi SE 6.9 mph - 0.01 in Snow Light Snow
8:15 AM 23.0 °F - 21.2 °F 93% 29.39 in 1.0 mi Calm Calm - N/A Snow Light Snow
8:35 AM 24.8 °F 20.5 °F 21.2 °F 86% 29.39 in 1.5 mi ESE 3.5 mph - 0.01 in Snow Light Snow
8:55 AM 24.8 °F - 21.2 °F 86% 29.39 in 0.8 mi Calm Calm - 0.01 in Snow Light Snow
9:15 AM 24.8 °F - 23.0 °F 93% 29.39 in 2.0 mi Calm Calm - 0.01 in Snow Light Snow
9:35 AM 24.8 °F - 23.0 °F 93% 29.40 in 1.2 mi Calm Calm - 0.02 in Snow Light Snow
9:55 AM 26.6 °F - 24.8 °F 93% 29.40 in 0.8 mi Calm Calm - 0.03 in Snow Snow
10:15 AM 26.6 °F - 21.2 °F 80% 29.40 in 1.2 mi Calm Calm - 0.01 in Snow Light Snow
10:35 AM 26.6 °F - 21.2 °F 80% 29.41 in 1.5 mi Calm Calm - 0.01 in Snow Light Snow
10:55 AM 26.6 °F 18.2 °F 21.2 °F 80% 29.41 in 0.8 mi NW 8.1 mph - 0.01 in Snow Light Snow
11:15 AM 26.6 °F 16.8 °F 21.2 °F 80% 29.43 in 0.5 mi WNW 10.4 mph - N/A Snow Snow
11:35 AM 24.8 °F 10.7 °F 19.4 °F 80% 29.44 in 0.5 mi WNW 19.6 mph 24.2 mph 0.01 in Snow Light Snow
11:55 AM 19.4 °F 2.8 °F 15.8 °F 86% 29.46 in 0.8 mi WNW 21.9 mph 28.8 mph 0.01 in Snow Light Snow
12:15 PM 19.4 °F 2.1 °F 14.0 °F 80% 29.48 in 0.5 mi WNW 24.2 mph 34.5 mph N/A Snow Light Snow
12:32 PM 17.6 °F 0.5 °F 12.2 °F 79% 29.49 in 0.5 mi WNW 21.9 mph 32.2 mph N/A Snow Light Snow
12:55 PM 15.8 °F -1.5 °F 10.4 °F 79% 29.51 in 0.5 mi WNW 20.7 mph 31.1 mph N/A Snow Light Snow
1:13 PM 15.8 °F -1.5 °F 10.4 °F 79% 29.52 in 0.5 mi WNW 20.7 mph 32.2 mph N/A Snow Light Snow
1:35 PM 15.8 °F -2.7 °F 10.4 °F 79% 29.54 in 0.5 mi WNW 24.2 mph 34.5 mph N/A Snow Light Snow
1:52 PM 15.8 °F -1.9 °F 10.4 °F 79% 29.55 in 0.5 mi WNW 21.9 mph 33.4 mph N/A Snow Light Snow
2:15 PM 15.8 °F -1.5 °F 10.4 °F 79% 29.56 in 0.5 mi WNW 20.7 mph 29.9 mph N/A Snow Light Snow
2:35 PM 17.6 °F 0.9 °F 10.4 °F 73% 29.57 in 0.8 mi WNW 20.7 mph 34.5 mph N/A Snow Light Snow
2:55 PM 17.6 °F 0.5 °F 10.4 °F 73% 29.58 in 0.8 mi WNW 21.9 mph 36.8 mph N/A Snow Light Snow
3:15 PM 15.8 °F -2.7 °F 8.6 °F 73% 29.60 in 0.8 mi WNW 24.2 mph 31.1 mph N/A Snow Light Snow
3:35 PM 15.8 °F -1.5 °F 8.6 °F 73% 29.61 in 1.0 mi WNW 20.7 mph 29.9 mph N/A Snow Light Snow
4:15 PM 15.8 °F -2.7 °F 8.6 °F 73% 29.64 in 1.0 mi WNW 24.2 mph 32.2 mph N/A Snow Light Snow
4:35 PM 15.8 °F -2.3 °F 8.6 °F 73% 29.65 in 1.2 mi WNW 23.0 mph 32.2 mph N/A Snow Light Snow
4:55 PM 12.2 °F -4.3 °F 6.8 °F 79% 29.67 in 1.2 mi WNW 16.1 mph 31.1 mph N/A Snow Light Snow
5:15 PM 10.4 °F -9.9 °F 6.8 °F 85% 29.68 in 0.8 mi NW 24.2 mph 36.8 mph N/A Snow Light Snow
5:35 PM 10.4 °F -9.5 °F 6.8 °F 85% 29.70 in 0.5 mi NW 23.0 mph 35.7 mph N/A Snow Light Snow
5:55 PM 10.4 °F -8.6 °F 6.8 °F 85% 29.71 in 0.8 mi NW 20.7 mph 31.1 mph N/A Snow Light Snow
6:15 PM 10.4 °F -9.9 °F 6.8 °F 85% 29.72 in 0.8 mi NW 24.2 mph 36.8 mph N/A Snow Light Snow
6:35 PM 10.4 °F -11.4 °F 5.0 °F 79% 29.73 in 0.8 mi NW 28.8 mph 34.5 mph N/A Snow Light Snow
6:55 PM 8.6 °F -12.3 °F 3.2 °F 79% 29.73 in 1.0 mi NW 24.2 mph 34.5 mph N/A Snow Light Snow
7:14 PM 8.6 °F -11.9 °F 3.2 °F 79% 29.74 in 1.2 mi WNW 23.0 mph 31.1 mph N/A Snow Light Snow
7:35 PM 6.8 °F -13.8 °F 3.2 °F 85% 29.76 in 1.5 mi WNW 21.9 mph 33.4 mph N/A Snow Light Snow
7:55 PM 6.8 °F -14.3 °F 3.2 °F 85% 29.77 in 2.0 mi WNW 23.0 mph 28.8 mph N/A Snow Light Snow
8:11 PM 6.8 °F -13.8 °F 1.4 °F 79% 29.78 in 2.5 mi NW 21.9 mph 27.6 mph N/A Snow Light Snow
8:35 PM 6.8 °F -13.4 °F 1.4 °F 79% 29.79 in 2.5 mi WNW 20.7 mph 27.6 mph N/A Snow Light Snow
8:55 PM 5.0 °F -14.7 °F 1.4 °F 85% 29.79 in 3.0 mi WNW 18.4 mph 28.8 mph N/A Snow Light Snow
9:15 PM 5.0 °F -15.2 °F 1.4 °F 85% 29.80 in 3.0 mi NW 19.6 mph 26.5 mph N/A Snow Light Snow
9:35 PM 5.0 °F -14.2 °F 1.4 °F 85% 29.81 in 4.0 mi NW 17.3 mph 26.5 mph N/A Snow Light Snow
9:55 PM 3.2 °F -16.5 °F 1.4 °F 92% 29.82 in 4.0 mi WNW 17.3 mph 24.2 mph N/A Snow Light Snow
10:15 PM 3.2 °F -16.5 °F 1.4 °F 92% 29.83 in 5.0 mi WNW 17.3 mph 26.5 mph N/A Snow Light Snow
10:55 PM 3.2 °F -15.9 °F 1.4 °F 92% 29.84 in 7.0 mi WNW 16.1 mph - N/A Snow Light Snow
11:15 PM 3.2 °F -15.3 °F -0.4 °F 85% 29.85 in 10.0 mi NW 15.0 mph 21.9 mph N/A   Mostly Cloudy
11:35 PM 3.2 °F -14.6 °F -0.4 °F 85% 29.85 in 10.0 mi WNW 13.8 mph 20.7 mph N/A   Scattered Clouds
11:55 PM 3.2 °F -15.3 °F -0.4 °F 85% 29.86 in 10.0 mi WNW 15.0 mph - N/A   Clear